FENGYUN 1C DEB, 29817

Orbit data source: Space-Track

FENGYUN 1C DEB, 29817 is space debris in SSO originally from a launch on Mon, 10 May 1999 UTC launched from the Taiyaun Space Center, China (TSC). Fengyun 1C debris stems from the Chinese weather satellite Fengyun-1C, which was intentionally destroyed by a Chinese anti-satellite missile in 2007. This event dramatically increased the amount of space debris, with thousands of trackable fragments posing hazards to satellites and human spaceflight. The Fengyun 1C debris cloud has become a focal point in discussions about space sustainability and the need for international regulations to prevent the creation of new debris.

Loading next visibility...
Identifier
29817, 1999-025DK
Orbit
SSO
Country
Flag of CNCN / PRC
Related business
Manufacturer
Unknown
Mission
Spacecraft
Bus & Motor
Unknown
Mass
Unknown
Launch date (UTC)
1999-05-10 (27 years ago)
Launch vehicle
Unknown
Launch site
Taiyaun Space Center, China (TSC)
Object type
Payload
Rocket body
Debris
Shape & HBR
Unknown shape, 0.1 m
Radar Cross Section
Medium (>0.1 m² and <1 m²)

Expand to show TLE details & history
Last TLE update: 14 hours ago

TLE from 14 hours ago
0 FENGYUN 1C DEB
1 29817U 99025DK  26170.41360595  .00000382  00000-0  22100-3 0  9992
2 29817  98.5718 156.9349 0011591 184.5916 331.8864 14.14505687   605
Epoch: 2026-06-19T09:55Z
TLE epoch observation values (Epoch: 2026-06-19T09:55:35.554Z)
Latitude
23.32658°
Longitude
-75.89914°
Altitude
839.434 km
Speed
7.439 km/s
True Right ascension
22h 42m 34s
True Declination
23° 12' 12"
Sunlit
Object was in daylight at epoch
Visualization orbit readout
Latitude
Unknown
Longitude
Unknown
Altitude
Unknown
Speed
Unknown
Apparent Right ascension
Unknown
Apparent Declination
Unknown
Sunlit
N/A
Visualization observer readout
Local Sidereal Time
10:36:18
Azimuth
Unknown
Elevation
Unknown
Doppler factor
Unknown
Orbital elements
Apogee altitude
849.522 km
Perigee altitude
832.786 km
Semi-major axis
7,219.291 km
Eccentricity
0.00116
Inclination
98.5718°
RAAN
156.9349°
Arg. of periapsis
184.5916°
True anomaly
331.82373°
Mean anomaly
331.8864°
Eccentric anomaly
331.85507°
Mean motion
3.53835 °/min
Orbital period
101.74 mins
BSTAR
0.000221
Loading maneuver chart data...
Computing Atmospheric mass density...

Documentation

Showing up to 5 results
|